EUTELSAT 33D

Last updated on Mon Aug 22 2016 09:38:59 GMT+0000 (Coordinated Universal Time)

1 27499U 02038A 16235.02068969 -.00000032 00000-0 00000+0 0 9996 2 27499 0.1575 82.6809 0002460 98.5107 178.8068 0.99326529 51263
UTC large
Height (km)
Speed (km/s)
/
Latitude / Longitude
Inclination (degrees)
Orbital Period (minutes)
Azimuth
Elevation
Range (km)
Doppler Factor

Next 0 passes for location: London (51.5072 / 0.1276)

Sorry there are no passes over London.
EUTELSAT 33D